Weather in Bakhmut

Ukraine / Donetsk Region     48°35′22″N   38°00′07″E
temp.,
°C
wind,
m/s
gust,
m/s
humid.,
%
clouds,
%
prec.,
mm/h
press.,
hPa
HPBL,
m
13 april, tue
tue1300:00+12sse1181100 0.1 102258
03:00+11wsw0184100 0.1 102239
06:00+11n1189100 0.0 102123
09:00+13ene2478100 0.0 1021449
12:00+14sse457491 0.0 1021878
15:00+12ssw457795 0.1 1022676
18:00+13s3462100 0.0 10211108
21:00+11s2572100 0.0 1022205
14 april, wed
wed1400:00+9sw237830 0.0 102151
03:00+8nnw1180100 0.0 102111
06:00+8ene1181100 0.3 102031
09:00+10ne1182100 2.2 1019293
12:00+15sw125987 0.0 10171146
15:00+15wsw1257100 0.8 10161011
18:00+13n2276100 1.1 1016158
21:00+11wnw228299 1.3 101655
15 april, thu
thu1500:00+10w1180100 0.1 101521
03:00+8sw248527 0.1 101575
06:00+7ssw3586100 0.0 1016112
09:00+10ssw356617 0.0 1016397
12:00+13ssw565477 0.0 1015999
15:00+16s685299 0.2 10141666
18:00+14s686455 0.2 10141205
21:00+11ssw487547 0.4 1015439
16 april, fri
fri1600:00+9ssw48781 0.0 1015265
03:00+7ssw37860 0.0 1015201
06:00+6ssw48885 0.0 1016296
09:00+9ssw57645 0.0 1017695
12:00+12sw574860 0.0 10171796
15:00+12wsw565028 0.0 10181197
18:00+11wsw555289 0.0 10181092
21:00+10ssw345388 0.0 1018215
17 april, sat
sat1700:00+8wsw3771100 0.0 1019420
03:00+7sw377815 0.0 1020219
06:00+6wsw35845 0.0 1021143
09:00+10w34585 0.0 1020723
12:00+12sw444794 0.1 10221828
15:00+12wsw445455 0.1 10221391
18:00+11w44557 0.0 10231054
21:00+8wnw01679 0.0 102317